Weather History for KLRJ - January, 2014

Change the Weather History Date:

Wednesday, January 22, 2014

  Actual Average (KSUX) Record (KSUX)
Temperature  
Mean Temperature 8 °F 20 °F  
Max Temperature 21 °F 31 °F 62 °F (1989)
Min Temperature -5 °F 10 °F -21 °F (1936)
Degree Days  
Heating Degree Days 57 45  
Month to date heating degree days 990  
Since 1 July heating degree days 3782  
Cooling Degree Days 0 0  
Month to date cooling degree days 0  
Year to date cooling degree days 0  
Moisture  
Dew Point 2 °F    
Average Humidity 73    
Maximum Humidity 86    
Minimum Humidity 56    
Precipitation  
Precipitation 0.00 in 0.02 in 1.09 in (1982)
Month to date precipitation 0.44  
Year to date precipitation 0.44  
Snow  
Snow 0.00 in 0.20 in 17.40 in (1982)
Month to date snowfall 4.6  
Since 1 July snowfall 17.8  
Snow Depth -    
Sea Level Pressure  
Sea Level Pressure 30.26 in    
Wind  
Wind Speed 14 mph (NNW)    
Max Wind Speed 28 mph    
Max Gust Speed 38 mph    
Visibility 9 miles    
Events Snow    
T = Trace of Precipitation, MM = Missing Value Source: NWS Daily Summary

Daily Weather History Graph

Daily Weather History Graph

Search for Another Location

Airport or City:

Trip Planner

Search our weather history database for the weather conditions in past years. The results will help you decide how hot, cold, wet, or windy it might be!

Date:

Astronomy

Jan. 22, 2014 Rise Set
Actual Time 7:48 AM CST 5:24 PM CST
Civil Twilight 7:17 AM CST 5:55 PM CST
Nautical Twilight 6:43 AM CST 6:30 PM CST
Astronomical Twilight 6:09 AM CST 7:03 PM CST
Moon No Moon Rise 10:40 AM CST (1/22)
Length of Visible Light 10h 38m
Length of Day
9h 36m
Waning Gibbous, 65% of the Moon is Illuminated
Jan 22
Waning Gibbous
Jan 23
Last Quarter
Jan 30
New
Feb 6
First Quarter
Feb 14
Full

Hourly Weather History & Observations

Time (CST) Temp. Windchill Dew Point Humidity Pressure Visibility Wind Dir Wind Speed Gust Speed Precip Events Conditions
12:15 AM 21.2 °F 10.1 °F 15.8 °F 80% 30.03 in 10.0 mi NNW 10.4 mph 17.3 mph N/A   Overcast
12:35 AM 21.2 °F 8.3 °F 15.8 °F 80% 30.02 in 10.0 mi NNW 13.8 mph - N/A   Overcast
12:55 AM 21.2 °F 10.1 °F 15.8 °F 80% 30.03 in 10.0 mi NNW 10.4 mph 16.1 mph N/A   Overcast
1:15 AM 21.2 °F 9.5 °F 17.6 °F 86% 30.03 in 10.0 mi NNW 11.5 mph 18.4 mph N/A Snow Light Snow
1:35 AM 21.2 °F 9.5 °F 17.6 °F 86% 30.03 in 9.0 mi NW 11.5 mph - N/A Snow Light Snow
1:55 AM 21.2 °F 6.4 °F 15.8 °F 80% 30.03 in 7.0 mi NW 18.4 mph 29.9 mph N/A Snow Light Snow
2:15 AM 19.4 °F 3.6 °F 14.0 °F 80% 30.04 in 8.0 mi NW 19.6 mph 27.6 mph N/A Snow Light Snow
2:35 AM 17.6 °F 1.7 °F 12.2 °F 79% 30.05 in 10.0 mi NW 18.4 mph - N/A   Overcast
2:55 AM 17.6 °F 1.7 °F 12.2 °F 79% 30.06 in 10.0 mi NW 18.4 mph - N/A Snow Light Snow
3:15 AM 15.8 °F 0.3 °F 12.2 °F 86% 30.06 in 8.0 mi NNW 16.1 mph 23.0 mph N/A Snow Light Snow
3:55 AM 15.8 °F 0.9 °F 10.4 °F 79% 30.07 in 10.0 mi NW 15.0 mph - N/A   Overcast
4:15 AM 15.8 °F 0.3 °F 10.4 °F 79% 30.08 in 10.0 mi NW 16.1 mph 21.9 mph N/A   Overcast
4:35 AM 15.8 °F 0.3 °F 10.4 °F 79% 30.08 in 10.0 mi NW 16.1 mph - N/A   Overcast
4:55 AM 14.0 °F -0.2 °F 8.6 °F 79% 30.08 in 10.0 mi NNW 12.7 mph 20.7 mph N/A   Overcast
5:15 AM 12.2 °F -1.8 °F 6.8 °F 79% 30.09 in 10.0 mi NNW 11.5 mph - N/A   Scattered Clouds
5:35 AM 12.2 °F -1.0 °F 6.8 °F 79% 30.08 in 10.0 mi NNW 10.4 mph 16.1 mph N/A   Partly Cloudy
5:55 AM 12.2 °F -0.2 °F 6.8 °F 79% 30.09 in 10.0 mi NNW 9.2 mph - N/A   Clear
6:15 AM 10.4 °F -0.4 °F 6.8 °F 85% 30.09 in 10.0 mi NNW 6.9 mph - N/A   Clear
6:35 AM 8.6 °F - 5.0 °F 85% 30.08 in 10.0 mi Calm Calm - N/A   Clear
6:55 AM 10.4 °F 0.8 °F 6.8 °F 85% 30.05 in 10.0 mi SE 5.8 mph - N/A   Mostly Cloudy
7:15 AM 10.4 °F 0.8 °F 6.8 °F 85% 30.10 in 10.0 mi NNW 5.8 mph - N/A   Overcast
7:35 AM 10.4 °F 0.8 °F 6.8 °F 85% 30.11 in 10.0 mi WNW 5.8 mph - N/A   Overcast
7:55 AM 12.2 °F 0.7 °F 8.6 °F 85% 30.12 in 10.0 mi NW 8.1 mph - N/A   Overcast
8:15 AM 14.0 °F 5.1 °F 8.6 °F 79% 30.10 in 10.0 mi West 5.8 mph - N/A   Overcast
8:35 AM 14.0 °F 8.2 °F 10.4 °F 86% 30.09 in 10.0 mi WSW 3.5 mph - N/A   Overcast
8:55 AM 14.0 °F 6.5 °F 10.4 °F 86% 30.09 in 10.0 mi WSW 4.6 mph - N/A   Overcast
9:15 AM 14.0 °F 2.9 °F 10.4 °F 86% 30.10 in 10.0 mi SW 8.1 mph - N/A   Overcast
9:35 AM 15.8 °F 6.1 °F 10.4 °F 79% 30.13 in 10.0 mi West 6.9 mph - N/A   Overcast
9:55 AM 17.6 °F 4.3 °F 12.2 °F 79% 30.14 in 10.0 mi WNW 12.7 mph - N/A   Overcast
10:15 AM 17.6 °F 3.7 °F 10.4 °F 73% 30.16 in 3.0 mi NNW 13.8 mph 19.6 mph N/A Snow Light Snow
10:35 AM 17.6 °F 3.2 °F 12.2 °F 79% 30.16 in 3.0 mi NNW 15.0 mph - N/A Snow Light Snow
10:55 AM 17.6 °F 5.0 °F 14.0 °F 86% 30.17 in 2.5 mi North 11.5 mph 18.4 mph N/A Snow Light Snow
11:15 AM 17.6 °F 2.7 °F 12.2 °F 79% 30.17 in 1.8 mi North 16.1 mph 23.0 mph N/A Snow Light Snow
11:35 AM 17.6 °F 0.5 °F 12.2 °F 79% 30.17 in 3.0 mi North 21.9 mph 27.6 mph N/A Snow Light Snow
11:55 AM 17.6 °F 0.5 °F 10.4 °F 73% 30.17 in 7.0 mi North 21.9 mph 28.8 mph N/A Snow Light Snow
12:15 PM 15.8 °F -2.3 °F 8.6 °F 73% 30.19 in 8.0 mi North 23.0 mph 31.1 mph N/A Snow Light Snow
12:35 PM 15.8 °F -2.3 °F 6.8 °F 68% 30.19 in 10.0 mi North 23.0 mph 29.9 mph N/A   Mostly Cloudy
12:55 PM 12.2 °F -7.5 °F 3.2 °F 67% 30.21 in 8.0 mi North 24.2 mph 34.5 mph N/A   Mostly Cloudy
1:15 PM 10.4 °F -11.0 °F 1.4 °F 67% 30.23 in 5.0 mi North 27.6 mph 36.8 mph N/A Snow Light Snow
1:35 PM 8.6 °F -12.3 °F -0.4 °F 67% 30.25 in 9.0 mi North 24.2 mph 38.0 mph N/A Snow Light Snow
1:55 PM 8.6 °F -11.9 °F -2.2 °F 62% 30.26 in 10.0 mi North 23.0 mph 38.0 mph N/A   Scattered Clouds
2:15 PM 6.8 °F -14.7 °F -2.2 °F 67% 30.27 in 10.0 mi NNW 24.2 mph 32.2 mph N/A   Mostly Cloudy
2:35 PM 6.8 °F -15.1 °F -4.0 °F 61% 30.29 in 10.0 mi North 25.3 mph 34.5 mph N/A   Mostly Cloudy
2:55 PM 6.8 °F -15.1 °F -4.0 °F 61% 30.30 in 10.0 mi NNW 25.3 mph 32.2 mph N/A   Mostly Cloudy
3:15 PM 5.0 °F -16.7 °F -5.8 °F 61% 30.32 in 10.0 mi NNW 23.0 mph 35.7 mph N/A   Mostly Cloudy
3:35 PM 5.0 °F -15.7 °F -5.8 °F 61% 30.34 in 10.0 mi North 20.7 mph 29.9 mph N/A   Scattered Clouds
3:55 PM 5.0 °F -15.7 °F -5.8 °F 61% 30.36 in 10.0 mi North 20.7 mph 34.5 mph N/A   Mostly Cloudy
4:15 PM 5.0 °F -16.7 °F -7.6 °F 56% 30.37 in 10.0 mi North 23.0 mph 32.2 mph N/A   Partly Cloudy
4:35 PM 3.2 °F -19.5 °F -5.8 °F 66% 30.38 in 10.0 mi NNW 24.2 mph - N/A   Scattered Clouds
4:55 PM 3.2 °F -18.1 °F -7.6 °F 61% 30.39 in 10.0 mi NNW 20.7 mph 29.9 mph N/A   Partly Cloudy
5:15 PM 1.4 °F -19.4 °F -7.6 °F 66% 30.41 in 10.0 mi NNW 18.4 mph 25.3 mph N/A   Clear
5:35 PM 1.4 °F -18.8 °F -9.4 °F 61% 30.43 in 10.0 mi NNW 17.3 mph 26.5 mph N/A   Clear
5:55 PM 1.4 °F -18.8 °F -9.4 °F 61% 30.44 in 10.0 mi North 17.3 mph 24.2 mph N/A   Clear
6:15 PM -0.4 °F -20.5 °F -9.4 °F 66% 30.46 in 10.0 mi NNW 16.1 mph 23.0 mph N/A   Clear
6:35 PM -0.4 °F -19.2 °F -9.4 °F 66% 30.47 in 10.0 mi North 13.8 mph 20.7 mph N/A   Clear
6:55 PM -0.4 °F -19.9 °F -9.4 °F 66% 30.48 in 10.0 mi NNW 15.0 mph - N/A   Clear
7:15 PM -0.4 °F -19.9 °F -11.2 °F 60% 30.49 in 10.0 mi NNW 15.0 mph 24.2 mph N/A   Clear
7:35 PM -0.4 °F -19.9 °F -11.2 °F 60% 30.49 in 10.0 mi NNW 15.0 mph - N/A   Clear
7:55 PM -2.2 °F -22.2 °F -11.2 °F 66% 30.50 in 10.0 mi NNW 15.0 mph 26.5 mph N/A   Clear
8:15 PM -2.2 °F -22.2 °F -11.2 °F 66% 30.52 in 10.0 mi NNW 15.0 mph - N/A   Clear
8:35 PM -2.2 °F -20.7 °F -11.2 °F 66% 30.53 in 10.0 mi NNW 12.7 mph - N/A   Clear
8:55 PM -2.2 °F -22.9 °F -11.2 °F 66% 30.54 in 10.0 mi NNW 16.1 mph 21.9 mph N/A   Clear
9:15 PM -2.2 °F -22.2 °F -11.2 °F 66% 30.55 in 10.0 mi NW 15.0 mph 20.7 mph N/A   Clear
9:35 PM -4.0 °F -23.7 °F -11.2 °F 71% 30.56 in 10.0 mi NW 13.8 mph 19.6 mph N/A   Clear
9:55 PM -4.0 °F -23.7 °F -11.2 °F 71% 30.57 in 10.0 mi NNW 13.8 mph - N/A   Clear
10:15 PM -4.0 °F -22.1 °F -11.2 °F 71% 30.58 in 10.0 mi NNW 11.5 mph 21.9 mph N/A   Clear
10:35 PM -4.0 °F -20.2 °F -13.0 °F 65% 30.59 in 10.0 mi NW 9.2 mph - N/A   Clear
10:55 PM -4.0 °F -24.5 °F -13.0 °F 65% 30.59 in 10.0 mi NNW 15.0 mph - N/A   Clear
11:15 PM -5.8 °F -25.2 °F -13.0 °F 71% 30.60 in 10.0 mi NNW 12.7 mph - N/A   Partly Cloudy
11:35 PM -5.8 °F -24.4 °F -13.0 °F 71% 30.61 in 10.0 mi NNW 11.5 mph 17.3 mph N/A   Scattered Clouds
11:55 PM -5.8 °F -26.0 °F -13.0 °F 71% 30.61 in 10.0 mi NNW 13.8 mph - N/A   Scattered Clouds